TimeEDT,TemperatureF,Dew PointF,Humidity,Sea Level PressureIn,VisibilityMPH,Wind Direction,Wind SpeedMPH,Gust SpeedMPH,PrecipitationIn,Events,Conditions,WindDirDegrees,DateUTC
12:04 AM,42.8,39.2,87,29.89,10.0,Calm,Calm,-,N/A,,Overcast,0,2013-10-20 04:04:00
12:53 AM,39.9,37.0,89,29.90,9.0,SE,5.8,-,N/A,,Scattered Clouds,130,2013-10-20 04:53:00
1:53 AM,39.9,36.0,86,29.90,10.0,Calm,Calm,-,N/A,,Clear,0,2013-10-20 05:53:00
2:53 AM,39.0,36.0,89,29.92,10.0,ESE,5.8,-,N/A,,Mostly Cloudy,110,2013-10-20 06:53:00
3:53 AM,39.0,35.1,86,29.90,10.0,South,6.9,-,N/A,,Partly Cloudy,190,2013-10-20 07:53:00
4:53 AM,39.9,35.1,83,29.90,10.0,SSW,5.8,-,N/A,,Clear,200,2013-10-20 08:53:00
5:53 AM,39.9,34.0,79,29.90,10.0,SW,10.4,-,N/A,,Clear,220,2013-10-20 09:53:00
6:53 AM,39.9,34.0,79,29.92,10.0,SW,12.7,-,N/A,,Partly Cloudy,230,2013-10-20 10:53:00
7:53 AM,39.0,34.0,82,29.94,10.0,SW,10.4,-,N/A,,Clear,220,2013-10-20 11:53:00
8:53 AM,41.0,35.1,79,29.96,10.0,SW,9.2,18.4,N/A,,Overcast,220,2013-10-20 12:53:00
9:53 AM,42.1,35.1,76,29.97,10.0,SSW,10.4,-,N/A,,Mostly Cloudy,210,2013-10-20 13:53:00
10:53 AM,46.9,37.0,68,29.97,10.0,SW,11.5,19.6,N/A,,Partly Cloudy,230,2013-10-20 14:53:00
11:53 AM,48.9,37.9,66,29.97,10.0,SSW,9.2,-,N/A,,Overcast,210,2013-10-20 15:53:00
12:53 PM,51.1,37.0,59,29.97,10.0,WSW,11.5,-,N/A,,Overcast,240,2013-10-20 16:53:00
1:53 PM,53.1,37.9,57,29.96,10.0,West,15.0,-,N/A,,Mostly Cloudy,260,2013-10-20 17:53:00
2:53 PM,55.0,36.0,49,29.96,10.0,WSW,9.2,18.4,N/A,,Partly Cloudy,250,2013-10-20 18:53:00
3:53 PM,55.9,34.0,44,29.96,10.0,West,15.0,-,N/A,,Scattered Clouds,260,2013-10-20 19:53:00
4:53 PM,57.0,36.0,45,29.96,10.0,WSW,11.5,-,N/A,,Overcast,240,2013-10-20 20:53:00
5:53 PM,55.0,36.0,49,29.98,10.0,SW,6.9,-,N/A,,Overcast,230,2013-10-20 21:53:00
6:53 PM,51.1,37.9,61,29.98,10.0,South,4.6,-,N/A,,Overcast,170,2013-10-20 22:53:00
7:53 PM,50.0,37.9,63,29.99,10.0,South,5.8,-,N/A,,Overcast,170,2013-10-20 23:53:00
8:53 PM,48.0,37.9,68,29.99,10.0,South,5.8,-,N/A,,Clear,170,2013-10-21 00:53:00
9:53 PM,46.9,37.9,71,29.99,10.0,South,5.8,-,N/A,,Clear,170,2013-10-21 01:53:00
10:53 PM,48.9,37.9,66,29.99,10.0,SSW,8.1,-,N/A,,Clear,200,2013-10-21 02:53:00
11:53 PM,50.0,37.0,61,29.99,10.0,South,10.4,-,N/A,,Clear,190,2013-10-21 03:53:00